Погода в Жарковском

Россия / Тверская область     55°50′53″N   32°15′56″E
темп.,
°C
ветер,
м/с
пор.,
м/с
влажн.,
%
обл.,
%
осадки,
мм/ч
давл.,
гПа
погр.,
м
17 мая, вт
вт1700:00+6зсз31078100 0.0 1012540
03:00+4зсз31084100 0.0 1011297
06:00+4зсз31179100 0.0 1011350
09:00+9сз4862100 0.0 1011818
12:00+11сз5655100 0.1 10101779
15:00+10ссз4664100 0.4 10101313
18:00+9ссз4778100 0.5 1011977
21:00+7с4989100 0.8 10121063
18 мая, ср
ср1800:00+6с41094100 1.3 1014627
03:00+5ссз41095100 1.3 1015636
06:00+5ссз4892100 0.0 1017675
09:00+5ссз4886100 0.0 1019665
12:00+10ссз686089 0.0 10191321
15:00+12ссз584890 0.0 10191659
18:00+13сз484919 0.0 10181771
21:00+7з23765 0.0 101956
19 мая, чт
чт1900:00+5з37810 0.0 1019113
03:00+5з312835 0.0 1019311
06:00+5з41273100 0.0 1019455
09:00+10зсз5955100 0.0 1018667
12:00+14зсз4747100 0.0 10181161
15:00+15сз574385 0.0 10171671
18:00+15сз4752100 0.0 10161629
21:00+10сз1280100 0.2 101868
20 мая, пт
пт2000:00+8св228987 0.0 101946
03:00+8ссв258197 0.0 1019145
06:00+5всв2573100 0.0 1020153
09:00+9в2347100 0.0 1020543
12:00+12в2242100 0.0 10181071
15:00+12вюв2344100 0.0 10171311
18:00+12юв2352100 0.0 10161515
21:00+9в3865100 0.0 1015353
21 мая, сб
сб2100:00+7всв41167100 0.0 1015420
03:00+4св3107069 0.0 1015256
06:00+5св4107066 0.0 1015308
09:00+10всв57472 0.0 10151073
12:00+13всв57355 0.0 10142044
15:00+14всв453162 0.0 10142528
18:00+14всв443548 0.0 10142248
21:00+7в22645 0.0 101635